Tracking 28794 objects as of 19-Apr-2024
HD Live streaming from Space Station
objects crossing your sky now

LEMUR-2-DAYWZAGOODDAY

Track LEMUR-2-DAYWZAGOODDAY now!
10-day predictions
LEMUR-2-DAYWZAGOODDAY is classified as:


NORAD ID: 46501
Int'l Code: 2020-068R
Perigee: 463.8 km
Apogee: 476.6 km
Inclination: 97.8 °
Period: 93.9 minutes
Semi major axis: 6841 km
RCS: Unknown
Launch date: September 28, 2020
Source: United States (US)
Launch site: PLESETSK MISSILE AND SPACE COMPLEX (PKMTR)
Your satellite tracking list
Your tracking list is empty




NASA's NSSDC Master Catalog

Two Line Element Set (TLE):
1 46501U 20068R   24109.89055846  .00063283  00000-0  18927-2 0  9994
2 46501  97.7908  75.6176 0009341 127.8549 232.3539 15.34289944195868
Source of the keplerian elements: AFSPC